This demonstration page uses our WeatherBlox Daily Observations layout. Learn more.

40.92945, -100.16068

Hourly Observations for September 28, 2018

Temp ( °F °C ) Dew Point ( °F °C ) Humidity (%) Winds ( mph kmh ) Pressure ( in mb ) Visibility ( mi km ) Precip ( " mm )
12:15 am 00:15 Clear 54 12 46 7.5 74 74 NE 12 19 30.06 1018 10 16.0934 0 0
12:35 am 00:35 Clear 53 11.7 46 7.5 76 76 NE 13 20 30.06 1018 10 16.0934 0 0
12:55 am 00:55 Clear 53 11.5 45 7.1 75 75 NE 10 17 30.06 1018 10 16.0934 0 0
1:15 am 01:15 Clear 52 11.2 44 6.9 75 75 NE 13 20 30.06 1018 10 16.0934 0 0
1:35 am 01:35 Clear 51 10.8 44 6.6 76 76 NE 15 24 30.06 1018 10 16.0934 0 0
1:55 am 01:55 Clear 51 10.6 44 6.8 78 78 NE 13 20 30.06 1018 10 16.0934 0 0
2:15 am 02:15 Clear 51 10.5 44 6.5 76 76 NE 13 20 30.12 1020 10 16.0934 0 0
2:35 am 02:35 Clear 50 10.2 43 6.1 76 76 NNE 14 22 30.12 1020 10 16.0934 0 0
2:55 am 02:55 Mostly Cloudy 50 10 42 5.6 74 74 NE 10 17 30.15 1021 10 16.0934 0 0
3:15 am 03:15 Mostly Cloudy 50 9.9 41 5.1 72 72 NE 13 20 30.15 1021 10 16.0934 0 0
3:35 am 03:35 Cloudy 50 9.8 42 5.5 75 75 NE 13 20 30.15 1021 10 16.0934 0 0
3:55 am 03:55 Cloudy 50 9.8 43 6 77 77 NE 14 22 30.15 1021 10 16.0934 0 0
4:15 am 04:15 Cloudy 49 9.6 43 6 78 78 NNE 10 17 30.18 1022 10 16.0934 0 0
4:35 am 04:35 Cloudy 48 8.8 40 4.5 75 75 NE 13 20 30.18 1022 10 16.0934 0 0
4:55 am 04:55 Cloudy 47 8.3 39 3.9 74 74 NNE 15 24 30.18 1022 10 16.0934 0 0
5:15 am 05:15 Partly Cloudy 46 8 39 3.7 75 75 NNE 15 24 30.21 1023 10 16.0934 0 0
5:35 am 05:35 Partly Cloudy 46 7.8 39 3.7 76 76 NNE 17 28 30.24 1024 10 16.0934 0 0
5:55 am 05:55 Clear 46 7.7 38 3.5 75 75 NE 15 24 30.24 1024 10 16.0934 0 0
6:15 am 06:15 Partly Cloudy 46 7.7 38 3.3 74 74 NNE 10 17 30.24 1024 10 16.0934 0 0
6:35 am 06:35 Cloudy 46 7.7 39 3.7 76 76 NNE 12 19 30.27 1025 10 16.0934 0 0
6:55 am 06:55 Cloudy 46 7.6 38 3.1 73 73 NNE 17 28 30.27 1025 10 16.0934 0 0
7:15 am 07:15 Cloudy 46 7.6 37 3 73 73 NNE 13 20 30.27 1025 10 16.0934 0 0
7:35 am 07:35 Cloudy 46 7.5 37 2.9 73 73 NNE 13 20 30.27 1025 10 16.0934 0 0
7:55 am 07:55 Cloudy 46 7.5 37 2.7 72 72 NNE 16 26 30.3 1026 10 16.0934 0 0
8:15 am 08:15 Cloudy 45 7.3 37 2.5 72 72 NNE 15 24 30.3 1026 10 16.0934 0 0
8:35 am 08:35 Cloudy 45 7.4 37 2.6 72 72 NE 13 20 30.3 1026 10 16.0934 0 0
8:55 am 08:55 Cloudy 45 7.4 37 3 74 74 NNE 12 19 30.3 1026 10 16.0934 0 0
9:15 am 09:15 Cloudy 46 7.5 37 3 73 73 NNE 14 22 30.33 1027 10 16.0934 0 0
9:35 am 09:35 Cloudy 45 7.4 37 2.9 73 73 NNE 16 26 30.33 1027 10 16.0934 0 0
9:55 am 09:55 Cloudy 46 7.5 37 3 73 73 NNE 10 17 30.33 1027 10 16.0934 0 0
10:15 am 10:15 Cloudy 46 7.5 37 2.9 73 73 NNE 15 24 30.33 1027 10 16.0934 0 0
10:35 am 10:35 Cloudy 46 7.6 37 2.8 72 72 NE 14 22 30.36 1028 10 16.0934 0 0
10:55 am 10:55 Cloudy 46 7.7 37 3 72 72 NE 14 22 30.36 1028 10 16.0934 0 0
11:15 am 11:15 Cloudy 46 7.8 38 3.1 72 72 NNE 9 15 30.36 1028 10 16.0934 0 0
11:35 am 11:35 Cloudy 46 7.7 37 3 72 72 NE 12 19 30.39 1029 10 16.0934 0 0
11:55 am 11:55 Cloudy 46 7.8 37 3 72 72 NNE 10 17 30.39 1029 10 16.0934 0 0
12:15 pm 12:15 Cloudy 46 8 38 3.1 71 71 NNE 9 15 30.36 1028 10 16.0934 0 0
12:35 pm 12:35 Cloudy 47 8.1 37 3 71 71 NNE 12 19 30.39 1029 10 16.0934 0 0
12:55 pm 12:55 Cloudy 47 8.5 38 3.1 69 69 NE 9 15 30.39 1029 10 16.0934 0 0
1:15 pm 13:15 Cloudy 47 8.5 37 3 69 69 NE 13 20 30.39 1029 10 16.0934 0 0
1:35 pm 13:35 Cloudy 48 8.8 38 3.1 68 68 NNE 12 19 30.39 1029 10 16.0934 0 0
1:55 pm 13:55 Cloudy 48 9.1 37 3 66 66 NE 12 19 30.36 1028 10 16.0934 0 0
2:15 pm 14:15 Cloudy 48 9.1 37 3 66 66 NNE 10 17 30.36 1028 10 16.0934 0 0
2:35 pm 14:35 Cloudy 49 9.6 38 3.3 65 65 NNE 10 17 30.36 1028 10 16.0934 0 0
2:55 pm 14:55 Cloudy 49 9.7 38 3.2 64 64 ENE 9 15 30.33 1027 10 16.0934 0 0
3:15 pm 15:15 Cloudy 50 9.9 37 2.7 61 61 ENE 12 19 30.3 1026 10 16.0934 0 0
3:35 pm 15:35 Cloudy 50 10 37 2.5 60 60 NE 9 15 30.3 1026 10 16.0934 0 0
3:55 pm 15:55 Cloudy 50 10 37 2.5 60 60 NE 9 15 30.3 1026 10 16.0934 0 0
4:15 pm 16:15 Cloudy 50 10.1 37 2.5 60 60 NE 8 13 30.3 1026 10 16.0934 0 0
4:35 pm 16:35 Cloudy 50 10.1 37 2.5 60 60 ENE 10 17 30.3 1026 10 16.0934 0 0
4:55 pm 16:55 Cloudy 50 10 37 2.5 60 60 E 10 17 30.3 1026 10 16.0934 0 0
5:15 pm 17:15 Cloudy 50 10 36 2.4 60 60 ENE 7 11 30.3 1026 10 16.0934 0 0
5:35 pm 17:35 Cloudy 50 10 37 2.6 60 60 E 9 15 30.3 1026 10 16.0934 0 0
5:55 pm 17:55 Cloudy 49 9.7 36 2.4 61 61 E 8 13 30.3 1026 10 16.0934 0 0
6:15 pm 18:15 Cloudy 49 9.7 37 2.5 61 61 E 8 13 30.3 1026 10 16.0934 0 0
6:35 pm 18:35 Cloudy 49 9.6 37 2.7 62 62 E 8 13 30.3 1026 10 16.0934 0 0
6:55 pm 18:55 Cloudy 49 9.5 37 2.5 62 62 E 8 13 30.3 1026 10 16.0934 0 0
7:15 pm 19:15 Cloudy 49 9.3 37 2.7 64 64 ENE 7 11 30.33 1027 10 16.0934 0 0
7:35 pm 19:35 Cloudy 48 9.1 37 2.7 65 65 E 7 11 30.33 1027 10 16.0934 0 0
7:55 pm 19:55 Cloudy 48 8.7 37 2.7 66 66 E 6 9 30.33 1027 10 16.0934 0 0
8:15 pm 20:15 Cloudy 46 7.9 37 2.8 70 70 E 5 7 30.33 1027 10 16.0934 0 0
8:35 pm 20:35 Cloudy 46 7.5 37 3 73 73 E 5 7 30.33 1027 10 16.0934 0 0
8:55 pm 20:55 Cloudy 46 7.5 38 3.1 74 74 E 5 7 30.33 1027 10 16.0934 0 0
9:15 pm 21:15 Cloudy 45 7.2 37 3 75 75 E 3 6 30.33 1027 10 16.0934 0 0
9:35 pm 21:35 Cloudy 46 7.5 38 3.5 76 76 E 3 6 30.33 1027 10 16.0934 0 0
9:55 pm 21:55 Cloudy 46 8 38 3.2 72 72 E 3 6 30.33 1027 10 16.0934 0 0
10:15 pm 22:15 Cloudy 47 8.1 38 3.1 71 71 E 5 7 30.33 1027 10 16.0934 0 0
10:35 pm 22:35 Cloudy 47 8.2 37 3 70 70 E 5 7 30.33 1027 10 16.0934 0 0
10:55 pm 22:55 Cloudy 46 8 38 3.1 71 71 E 3 6 30.33 1027 10 16.0934 0 0
11:15 pm 23:15 Cloudy 46 7.7 38 3.5 75 75 E 3 6 30.33 1027 10 16.0934 0 0
11:35 pm 23:35 Cloudy 46 7.8 38 3.3 73 73 E 5 7 30.33 1027 10 16.0934 0 0
11:55 pm 23:55 Cloudy 46 7.7 38 3.2 73 73 ESE 6 9 30.33 1027 10 16.0934 0 0

Powered by AerisWeather